Timestamp[UTC];2m Lufttemperatur [degC] (tas);Stations-Luftdruck [Pa] (ps);relative Luftfeuchtigkeit [%] (hurs);spezifische Luftfeuchtigkeit [kg/kg] (huss);Niederschlagsmenge [mm] (pr);Windgeschwindigkeit in 2m [m/s] (sfcWind);Windrichtung [deg];maximale Windgeschwindigkeit [m/s] (wsgsmax);u-Windkomponente [m/s] (uas);v-Windkomponente [m/s] (vas);Sonneneinstrahlung [W/m2];Blitzrate [n];Blitzentfernung [km];Bodenfeuchte in 5cm Tiefe [vol%];Bodenfeuchte in 15cm Tiefe [vol%];Bodenfeuchte in 30cm Tiefe [vol%];Bodenfeuchte in 60cm Tiefe [vol%];Bodentemperatur in 5cm Tiefe [degC];Bodentemperatur in 15cm Tiefe [degC];Bodentemperatur in 30cm Tiefe [degC];Bodentemperatur in 60cm Tiefe [degC];Matrixpotential in 30cm Tiefe [kPa];Bodenfeuchte aus CRNS [vol%] (mrso);Neutronen Anzahl [N/h]
2023-05-01 00:00:00;9,4;101217;73;0,0053;0,0;1,7;98;2,6;1,68;-0,25;0;0;nan;26,2;27,0;27,9;17,6;10,4;10,4;10,5;9,7;-8,4;22,0;1564
2023-05-01 01:00:00;8,5;101143;75;0,0051;0,0;1,0;105;1,5;0,94;-0,24;0;0;nan;26,2;27,0;27,9;17,6;10,3;10,3;10,4;9,7;-8,4;22,0;1564
2023-05-01 02:00:00;8,0;101100;75;0,0049;0,0;0,3;122;0,6;0,19;-0,12;0;0;nan;26,2;27,0;27,9;17,6;10,1;10,3;10,3;9,7;-8,4;21,9;1564
2023-05-01 03:00:00;7,3;101018;80;0,005;0,0;0,7;105;1,0;0,7;-0,19;0;0;nan;26,2;27,0;27,8;17,6;9,9;10,3;10,2;9,8;-8,4;21,9;1565
2023-05-01 04:00:00;7,3;100947;81;0,0051;0,0;0,8;100;1,2;0,82;-0,15;14;0;nan;26,2;27,0;27,8;17,6;9,8;10,2;10,1;9,8;-8,4;22,1;1562
2023-05-01 05:00:00;7,9;100952;84;0,0055;0,0;0,6;105;1,0;0,6;-0,16;106;0;nan;26,2;27,0;27,8;17,6;9,8;10,2;10,0;9,8;-8,4;22,2;1560
2023-05-01 06:00:00;9,6;100954;79;0,0058;0,0;1,3;115;1,9;1,15;-0,54;139;0;nan;26,2;27,0;27,8;17,6;9,9;10,1;10,0;9,8;-8,4;22,4;1555
2023-05-01 07:00:00;12,0;100917;76;0,0066;0,0;1,3;153;2,6;0,56;-1,08;329;0;nan;26,1;27,0;27,8;17,6;10,1;10,1;10,0;9,8;-8,4;22,5;1554
2023-05-01 08:00:00;14,2;100927;70;0,007;0,0;1,3;209;2,8;-0,58;-1,07;344;0;nan;26,1;26,9;27,8;17,6;10,5;10,1;10,0;9,8;-8,4;22,7;1549
2023-05-01 09:00:00;15,8;100907;65;0,0072;0,0;1,7;239;3,4;-1,38;-0,84;488;0;nan;26,0;26,9;27,7;17,6;10,9;10,1;10,2;9,8;-8,4;22,9;1547
2023-05-01 10:00:00;17,8;100882;59;0,0074;0,0;1,4;329;3,3;-0,54;0,89;616;0;nan;25,9;26,8;27,6;17,6;11,4;10,1;10,4;9,8;-8,4;23,4;1538
2023-05-01 11:00:00;18,7;100850;54;0,0072;0,0;1,7;295;4,2;-1,26;0,58;513;0;nan;25,8;26,7;27,5;17,6;12,1;10,1;10,6;9,8;-8,5;23,7;1532
2023-05-01 12:00:00;18,8;100823;51;0,0068;0,0;2,0;287;4,4;-1,63;0,51;419;0;nan;25,6;26,5;27,5;17,6;12,5;10,2;10,9;9,8;-8,5;23,8;1531
2023-05-01 13:00:00;18,9;100793;50;0,0068;0,0;2,0;321;4,7;-1,19;1,5;282;0;nan;25,5;26,5;27,4;17,6;12,7;10,3;11,2;9,8;-8,5;24,1;1525
2023-05-01 14:00:00;17,9;100803;56;0,0071;0,31;2,2;282;4,4;-1,81;0,38;112;4;21;25,5;26,4;27,4;17,6;12,6;10,4;11,4;9,8;-8,5;24,4;1519
2023-05-01 15:00:00;12,6;100870;86;0,0078;6,31;3,6;226;6,9;-2,58;-2,48;121;37;4;32,1;32,1;32,1;17,6;11,1;10,5;11,4;9,8;-8,4;24,6;1516
2023-05-01 16:00:00;13,2;100913;93;0,0087;0,05;nan;nan;nan;nan;nan;84;0;nan;33,2;33,0;32,8;17,6;10,6;10,6;11,1;9,8;-8,0;24,9;1511
2023-05-01 17:00:00;14,4;100973;85;0,0086;0,0;nan;nan;nan;nan;nan;79;0;nan;32,7;32,7;32,7;17,6;10,9;10,6;10,8;9,8;-7,8;25,1;1509
2023-05-01 18:00:00;14,3;101038;76;0,0077;0,0;1,1;308;2,6;-0,87;0,67;22;0;nan;32,4;32,5;32,6;17,6;11,0;10,6;10,8;9,8;-7,8;25,3;1505
2023-05-01 19:00:00;13,8;101120;72;0,0071;0,0;1,9;327;3,8;-1,02;1,56;0;0;nan;32,2;32,4;32,5;17,6;11,1;10,6;10,8;9,9;-7,8;25,3;1506
2023-05-01 20:00:00;13,0;101187;76;0,007;0,0;2,5;333;4,9;-1,14;2,24;0;0;nan;32,0;32,2;32,4;17,6;11,0;10,6;10,8;9,9;-7,8;25,4;1503
2023-05-01 21:00:00;12,1;101243;83;0,0072;0,0;1,8;324;3,6;-1,06;1,47;0;0;nan;31,9;32,1;32,4;17,6;11,0;10,5;10,8;9,9;-7,8;25,5;1502
2023-05-01 22:00:00;10,9;101288;87;0,007;0,0;1,0;299;2,2;-0,81;0,45;0;0;nan;31,8;32,1;32,3;17,6;10,9;10,5;10,7;9,9;-7,8;25,6;1501
2023-05-01 23:00:00;9,4;101328;92;0,0067;0,0;1,4;271;2,5;-1,34;0,03;0;0;nan;31,7;32,0;32,3;17,6;10,7;10,5;10,7;9,9;-7,8;25,8;1497
2023-05-02 00:00:00;9,3;101343;93;0,0067;0,0;1,0;274;2,3;-0,98;0,06;0;0;nan;31,6;32,0;32,3;17,6;10,6;10,5;10,6;9,9;-7,8;26,1;1493
2023-05-02 01:00:00;9,8;101358;94;0,007;0,0;1,8;293;4,2;-1,62;0,69;0;0;nan;31,6;31,9;32,2;17,6;10,5;10,5;10,5;10,0;-7,8;26,2;1491
2023-05-02 02:00:00;10,0;101387;94;0,0071;0,0;1,7;285;3,6;-1,59;0,42;0;0;nan;31,5;31,9;32,2;17,6;10,5;10,5;10,5;10,0;-7,8;26,2;1492
2023-05-02 03:00:00;9,8;101420;95;0,0071;0,17;1,8;282;4,2;-1,7;0,37;0;0;nan;31,4;31,8;32,1;17,6;10,5;10,5;10,5;10,0;-7,9;26,3;1490
2023-05-02 04:00:00;9,3;101482;96;0,0069;0,05;3,1;332;5,4;-1,46;2,74;6;0;nan;31,4;31,7;32,1;17,6;10,5;10,4;10,4;10,0;-7,8;26,2;1491
2023-05-02 05:00:00;9,2;101587;93;0,0067;0,0;3,1;337;6,1;-1,22;2,82;29;0;nan;31,3;31,6;32,0;17,6;10,5;10,4;10,4;10,0;-7,8;25,9;1495
2023-05-02 06:00:00;8,1;101683;97;0,0064;0,0;4,7;2;7,3;0,15;4,63;69;0;nan;31,2;31,6;32,0;17,6;10,4;10,4;10,4;10,0;-7,8;25,9;1495
2023-05-02 07:00:00;7,2;101818;98;0,0061;0,0;4,6;5;7,7;0,41;4,57;125;0;nan;31,1;31,5;32,0;17,6;10,4;10,4;10,4;10,0;-7,8;26,0;1494
2023-05-02 08:00:00;7,8;101897;93;0,006;0,0;4,3;14;6,8;1,0;4,11;267;0;nan;31,0;32,2;33,4;17,6;10,5;10,4;10,4;10,0;-7,8;25,9;1496
2023-05-02 09:00:00;8,5;101963;85;0,0058;0,0;3,7;354;6,3;-0,38;3,6;285;0;nan;31,0;32,6;34,2;17,6;10,6;10,3;10,4;10,0;-7,8;25,9;1495
2023-05-02 10:00:00;9,0;102010;76;0,0054;0,0;3,6;1;6,4;0,08;3,54;369;0;nan;30,9;32,5;34,1;17,6;10,8;10,3;10,4;10,0;-7,9;25,4;1504
2023-05-02 11:00:00;10,0;102007;69;0,0052;0,0;3,2;360;7,3;-0,02;3,16;538;0;nan;30,7;32,8;34,8;17,6;11,1;10,3;10,5;10,0;-7,9;25,3;1504
2023-05-02 12:00:00;10,7;102043;66;0,0052;0,0;3,5;356;7,7;-0,25;3,49;571;0;nan;30,5;31,9;33,2;17,6;11,5;10,3;10,6;10,0;-7,9;25,5;1502
2023-05-02 13:00:00;10,9;102070;65;0,0051;0,0;3,7;3;7,6;0,2;3,69;522;0;nan;30,4;32,1;33,9;17,6;11,7;10,4;10,8;10,0;-7,9;25,0;1511
2023-05-02 14:00:00;11,4;102090;64;0,0053;0,0;3,8;3;6,9;0,22;3,8;506;0;nan;30,2;32,4;34,6;17,6;12,0;10,4;10,9;10,0;-7,9;24,7;1515
2023-05-02 15:00:00;11,2;102100;64;0,0052;0,0;4,0;3;6,9;0,21;3,93;424;0;nan;30,0;32,3;34,5;17,6;11,9;10,5;11,0;10,0;-7,9;24,3;1521
2023-05-02 16:00:00;11,1;102117;62;0,005;0,0;3,2;2;5,3;0,13;3,08;312;0;nan;29,9;32,1;34,4;17,6;11,9;10,5;11,1;10,0;-7,9;24,4;1520
2023-05-02 17:00:00;10,8;102135;61;0,0049;0,0;2,5;10;4,7;0,44;2,42;165;0;nan;29,8;32,1;34,5;17,6;11,8;10,5;11,1;10,0;-7,9;24,3;1521
2023-05-02 18:00:00;9,9;102177;65;0,0048;0,0;2,0;27;3,4;0,93;1,8;34;0;nan;29,7;32,1;34,5;17,6;11,6;10,6;11,1;10,0;-7,9;24,1;1525
2023-05-02 19:00:00;9,0;102220;68;0,0047;0,0;1,8;14;3,4;0,45;1,77;1;0;nan;29,7;32,1;34,5;17,6;11,3;10,6;11,1;10,0;-7,9;24,2;1524
2023-05-02 20:00:00;7,6;102302;74;0,0047;0,0;1,0;4;1,7;0,07;0,98;0;0;nan;29,6;32,0;34,5;17,7;11,1;10,6;10,9;10,0;-7,9;24,0;1526
2023-05-02 21:00:00;6,5;102320;77;0,0045;0,0;1,1;355;1,7;-0,1;1,08;0;0;nan;29,6;32,0;34,5;17,7;10,7;10,6;10,8;10,0;-7,9;24,1;1526
2023-05-02 22:00:00;6,0;102330;79;0,0045;0,0;1,5;7;2,6;0,18;1,51;0;0;nan;29,6;32,0;34,4;17,7;10,4;10,6;10,7;10,1;-7,9;24,0;1527
2023-05-02 23:00:00;5,3;102347;82;0,0045;0,0;0,7;58;1,2;0,58;0,37;0;0;nan;29,6;32,0;34,4;17,7;10,2;10,6;10,5;10,1;-7,9;23,9;1528
2023-05-03 00:00:00;4,5;102360;85;0,0043;0,0;0,8;3;1,3;0,04;0,78;0;0;nan;29,6;32,0;34,4;17,7;10,0;10,6;10,4;10,1;-7,9;23,8;1530
2023-05-03 01:00:00;3,9;102370;87;0,0043;0,0;0,8;50;1,6;0,63;0,53;0;0;nan;29,6;32,0;34,4;17,7;9,8;10,5;10,3;10,1;-7,9;23,8;1531
2023-05-03 02:00:00;3,8;102397;87;0,0043;0,0;1,1;30;2,0;0,54;0,92;0;0;nan;29,5;31,9;34,4;17,7;9,6;10,4;10,1;10,1;-7,9;23,6;1533
2023-05-03 03:00:00;2,8;102350;91;0,0041;0,0;0,9;82;1,4;0,78;0,12;0;0;nan;29,4;31,9;34,3;17,7;9,4;10,4;10,0;10,1;-7,9;23,6;1534
2023-05-03 04:00:00;3,0;102323;92;0,0043;0,0;0,8;62;1,5;0,74;0,4;35;0;nan;29,3;31,8;34,3;17,7;9,3;10,3;9,8;10,1;-7,9;23,5;1535
2023-05-03 05:00:00;4,3;102367;95;0,0048;0,0;1,0;45;1,8;0,69;0,68;132;0;nan;29,2;31,8;34,3;17,7;9,2;10,2;9,7;10,1;-7,9;23,7;1532
2023-05-03 06:00:00;5,8;102387;92;0,0052;0,0;2,1;80;3,2;2,04;0,35;238;0;nan;29,1;31,7;34,3;17,7;9,2;10,2;9,6;10,1;-7,9;23,6;1534
2023-05-03 07:00:00;7,6;102367;82;0,0052;0,0;3,5;100;5,4;3,24;-0,59;383;0;nan;29,1;31,7;34,3;17,7;9,4;10,1;9,6;10,1;-8,0;23,5;1536
2023-05-03 08:00:00;8,8;102340;76;0,0052;0,0;3,0;121;5,6;2,53;-1,5;540;0;nan;29,0;31,6;34,2;17,7;9,7;10,0;9,6;10,1;-8,0;23,4;1538
2023-05-03 09:00:00;9,6;102307;73;0,0053;0,0;2,9;98;5,6;2,85;-0,42;607;0;nan;29,0;31,6;34,1;17,7;10,1;10,0;9,7;10,1;-8,0;23,2;1541
2023-05-03 10:00:00;10,6;102288;70;0,0054;0,0;3,2;75;6,6;3,08;0,84;681;0;nan;28,8;31,4;34,0;17,7;10,7;10,0;9,9;10,1;-8,0;23,0;1545
2023-05-03 11:00:00;11,6;102268;66;0,0056;0,0;2,9;74;5,7;2,8;0,78;715;0;nan;28,7;31,3;33,9;17,7;11,2;10,0;10,1;10,0;-8,0;22,7;1550
2023-05-03 12:00:00;12,6;102230;63;0,0056;0,0;2,9;82;6,0;2,87;0,41;697;0;nan;28,4;31,1;33,8;17,7;11,8;10,0;10,4;10,0;-8,0;22,5;1554
2023-05-03 13:00:00;13,4;102138;58;0,0054;0,0;3,7;82;6,6;3,69;0,54;652;0;nan;28,3;31,0;33,7;17,7;12,1;10,1;10,7;10,0;-8,0;22,6;1552
2023-05-03 14:00:00;14,1;102053;56;0,0055;0,0;3,8;71;6,5;3,55;1,2;571;0;nan;28,1;30,8;33,6;17,7;12,1;10,2;10,9;10,0;-8,0;22,6;1553
2023-05-03 15:00:00;14,5;102010;55;0,0055;0,0;3,5;86;6,3;3,45;0,26;445;0;nan;28,1;30,8;33,5;17,7;12,0;10,3;11,0;10,0;-8,0;22,7;1550
2023-05-03 16:00:00;14,5;101972;53;0,0053;0,0;3,9;84;6,3;3,87;0,38;316;0;nan;28,0;30,7;33,4;17,7;11,9;10,4;11,1;10,0;-8,0;22,7;1549
2023-05-03 17:00:00;14,2;101940;53;0,0052;0,0;3,4;82;5,7;3,4;0,48;170;0;nan;28,0;30,3;32,6;17,7;11,8;10,4;11,1;10,0;-8,0;22,6;1552
2023-05-03 18:00:00;13,4;101920;55;0,0052;0,0;2,6;80;4,6;2,6;0,48;33;0;nan;28,0;30,3;32,5;17,7;11,6;10,5;11,1;10,0;-8,0;22,4;1556
2023-05-03 19:00:00;11,9;101923;62;0,0053;0,0;1,6;61;2,6;1,35;0,75;1;0;nan;27,9;29,8;31,8;17,7;11,4;10,5;11,0;10,0;-8,0;22,2;1560
2023-05-03 20:00:00;10,6;101980;66;0,0052;0,0;1,6;56;2,6;1,31;0,9;0;0;nan;27,8;29,4;31,0;17,7;11,1;10,6;10,9;10,0;-8,0;22,3;1558
2023-05-03 21:00:00;10,1;101940;67;0,005;0,0;2,1;68;3,3;1,94;0,79;0;0;nan;27,8;29,0;30,2;17,7;10,9;10,6;10,8;10,0;-8,0;22,2;1559
2023-05-03 22:00:00;9,3;101903;70;0,005;0,0;1,8;60;3,3;1,58;0,91;0;0;nan;27,8;29,0;30,2;17,7;10,7;10,6;10,7;10,0;-8,0;22,1;1562
2023-05-03 23:00:00;8,7;101870;72;0,005;0,0;2,2;74;3,7;2,16;0,64;0;0;nan;27,9;29,0;30,1;17,7;10,6;10,5;10,6;10,0;-8,0;22,2;1560
2023-05-04 00:00:00;8,1;101827;76;0,005;0,0;2,3;75;3,7;2,24;0,61;0;0;nan;27,9;29,0;30,1;17,7;10,4;10,5;10,5;10,0;-8,0;22,2;1558
2023-05-04 01:00:00;7,2;101757;80;0,005;0,0;2,4;78;3,7;2,33;0,48;0;0;nan;27,8;30,1;32,4;17,7;10,3;10,5;10,4;10,1;-8,0;22,2;1560
2023-05-04 02:00:00;6,9;101730;81;0,005;0,0;2,5;77;3,7;2,4;0,57;0;0;nan;27,8;28,9;30,1;17,7;10,1;10,5;10,4;10,1;-8,1;22,2;1560
2023-05-04 03:00:00;6,6;101690;82;0,0049;0,0;2,2;75;3,4;2,17;0,57;0;0;nan;27,7;28,9;30,1;17,8;10,0;10,4;10,3;10,1;-8,0;22,2;1560
2023-05-04 04:00:00;6,3;101653;84;0,0049;0,0;2,3;82;3,4;2,24;0,33;18;0;nan;27,7;28,9;30,1;17,8;9,9;10,4;10,2;10,1;-8,1;22,2;1559
2023-05-04 05:00:00;7,3;101643;85;0,0053;0,0;2,4;94;3,2;2,4;-0,15;129;0;nan;27,7;28,9;30,0;17,8;9,9;10,3;10,1;10,1;-8,1;22,2;1560
2023-05-04 06:00:00;9,2;101613;81;0,0058;0,0;2,6;99;3,6;2,61;-0,4;208;0;nan;27,8;28,9;30,0;17,8;9,9;10,3;10,0;10,1;-8,0;22,2;1560
2023-05-04 07:00:00;11,2;101595;75;0,0062;0,0;2,5;97;3,7;2,51;-0,3;346;0;nan;27,8;28,9;30,0;17,8;10,1;10,3;10,0;10,1;-8,1;21,9;1564
2023-05-04 08:00:00;13,7;101553;70;0,0067;0,0;1,9;88;3,3;1,88;0,05;472;0;nan;27,7;29,2;30,7;17,8;10,4;10,2;10,1;10,1;-8,1;21,9;1565
2023-05-04 09:00:00;15,5;101523;64;0,0069;0,0;2,4;97;4,4;2,34;-0,3;529;0;nan;27,7;28,7;29,8;17,8;10,9;10,2;10,2;10,1;-8,1;22,1;1561
2023-05-04 10:00:00;17,5;101458;58;0,0071;0,0;3,0;101;5,3;2,88;-0,57;618;0;nan;27,5;28,6;29,7;17,8;11,4;10,2;10,4;10,1;-8,1;22,1;1562
2023-05-04 11:00:00;18,8;101365;53;0,0071;0,0;3,2;118;6,7;2,79;-1,49;699;0;nan;27,3;28,5;29,6;17,8;11,9;10,2;10,6;10,1;-8,1;22,3;1558
2023-05-04 12:00:00;19,9;101280;50;0,0071;0,0;3,6;123;6,4;2,95;-1,94;682;0;nan;27,1;28,3;29,5;17,8;12,5;10,3;10,9;10,1;-8,1;22,2;1559
2023-05-04 13:00:00;20,9;101220;47;0,0072;0,0;4,0;117;7,3;3,51;-1,79;593;0;nan;26,9;28,1;29,3;17,8;12,9;10,4;11,2;10,0;-8,1;22,3;1557
2023-05-04 14:00:00;21,2;101130;47;0,0073;0,0;4,5;103;7,2;4,38;-1,02;423;0;nan;26,8;28,0;29,2;17,8;13,0;10,5;11,4;10,1;-8,1;22,5;1553
2023-05-04 15:00:00;21,2;101037;46;0,0071;0,0;5,3;92;8,5;5,32;-0,21;357;0;nan;26,7;27,9;29,2;17,8;12,9;10,6;11,6;10,0;-8,1;22,5;1554
2023-05-04 16:00:00;20,7;101010;48;0,0072;0,0;4,7;98;7,3;4,67;-0,68;219;0;nan;26,5;27,8;29,1;17,7;12,8;10,7;11,7;10,1;-8,1;22,3;1558
2023-05-04 17:00:00;20,1;100960;50;0,0073;0,0;4,2;104;6,3;4,08;-1,02;142;0;nan;26,4;27,7;29,0;17,7;12,7;10,8;11,7;10,1;-8,1;22,2;1559
2023-05-04 18:00:00;19,3;100992;53;0,0073;0,0;3,4;106;5,5;3,27;-0,93;68;0;nan;26,4;27,7;29,0;17,7;12,6;10,9;11,8;10,1;-8,1;22,2;1560
2023-05-04 19:00:00;17,4;101014;57;0,007;0,0;1,7;105;3,1;1,66;-0,45;2;0;nan;26,3;27,6;28,9;17,7;12,5;10,9;11,7;10,1;-8,2;22,4;1556
2023-05-04 20:00:00;16,5;101027;58;0,0067;0,0;1,5;85;2,1;1,5;0,14;0;0;nan;26,3;27,6;28,9;17,7;12,2;11,0;11,7;10,1;-8,1;22,2;1558
2023-05-04 21:00:00;15,3;100980;64;0,0068;0,0;1,5;89;2,3;1,53;0,03;0;0;nan;26,3;27,6;28,9;17,7;12,0;11,0;11,6;10,1;-8,2;22,4;1555
2023-05-04 22:00:00;14,4;100925;67;0,0068;0,0;1,0;96;1,6;0,98;-0,1;0;0;nan;26,2;27,6;28,9;17,7;11,7;11,0;11,5;10,2;-8,1;22,7;1550
2023-05-04 23:00:00;14,7;100923;66;0,0068;0,0;0,7;135;1,3;0,5;-0,49;0;0;nan;26,2;27,6;28,9;17,7;11,6;11,0;11,4;10,2;-8,2;22,6;1552
2023-05-05 00:00:00;15,6;100907;63;0,0068;0,0;1,6;156;2,9;0,66;-1,48;0;0;nan;26,2;27,5;28,9;17,7;11,5;11,0;11,3;10,2;-8,2;22,5;1554
2023-05-05 01:00:00;15,3;100885;64;0,0069;0,0;1,2;184;2,4;-0,07;-1,1;0;0;nan;26,2;27,5;28,8;17,7;11,4;11,0;11,3;10,2;-8,2;22,5;1554
2023-05-05 02:00:00;15,4;100907;68;0,0073;0,0;2,4;250;4,4;-2,17;-0,8;0;0;nan;26,2;27,5;28,8;17,7;11,4;11,0;11,2;10,2;-8,2;22,9;1546
2023-05-05 03:00:00;14,9;100927;75;0,0079;0,0;2,1;265;3,4;-2,05;-0,18;0;0;nan;26,2;27,5;28,8;17,7;11,4;11,0;11,2;10,3;-8,2;22,8;1549
2023-05-05 04:00:00;14,0;100953;81;0,008;0,0;1,5;240;2,3;-1,28;-0,73;18;0;nan;26,2;27,5;28,8;17,7;11,4;11,0;11,2;10,3;-8,2;22,8;1547
2023-05-05 05:00:00;14,5;101020;84;0,0086;0,0;2,4;255;3,8;-2,33;-0,63;129;0;nan;26,2;27,5;28,8;17,7;11,4;10,9;11,1;10,3;-8,2;23,0;1545
2023-05-05 06:00:00;15,7;101058;82;0,009;0,0;2,5;271;4,7;-2,47;0,04;230;0;nan;26,2;27,5;28,7;17,7;11,4;10,9;11,1;10,3;-8,2;22,9;1545
2023-05-05 07:00:00;16,6;101105;80;0,0093;0,0;2,4;274;4,8;-2,36;0,18;340;0;nan;26,1;27,4;28,7;17,7;11,6;10,9;11,2;10,3;-8,2;23,2;1540
2023-05-05 08:00:00;17,6;101120;75;0,0093;0,0;2,4;287;4,6;-2,25;0,7;434;0;nan;26,1;27,3;28,6;17,7;11,8;10,9;11,2;10,3;-8,2;23,3;1539
2023-05-05 09:00:00;19,0;101140;69;0,0094;0,0;2,1;283;5,0;-1,97;0,47;566;0;nan;25,9;27,2;28,5;17,7;12,2;10,9;11,3;10,3;-8,2;23,2;1541
2023-05-05 10:00:00;19,2;101140;66;0,009;0,0;2,2;246;4,8;-1,94;-0,85;457;0;nan;25,8;27,1;28,4;17,7;12,7;11,0;11,5;10,4;-8,2;23,6;1535
2023-05-05 11:00:00;19,4;101073;63;0,0087;0,0;2,0;268;4,4;-1,94;-0,07;344;0;nan;25,7;27,0;28,3;17,7;13,0;11,0;11,7;10,4;-8,2;23,6;1534
2023-05-05 12:00:00;19,5;101040;62;0,0087;0,0;2,0;237;3,9;-1,59;-1,05;201;10;22;25,5;26,9;28,2;17,7;13,2;11,1;11,9;10,4;-8,2;23,8;1530
2023-05-05 13:00:00;13,9;101120;95;0,0093;5,73;4,0;298;8,0;-3,12;1,65;198;8;15;27,1;27,6;28,2;17,7;13,2;11,2;12,1;10,4;-8,2;24,0;1527
2023-05-05 14:00:00;13,2;101150;94;0,0088;0,22;3,3;326;6,6;-1,84;2,76;112;0;nan;27,5;27,8;28,2;17,7;13,2;11,2;12,2;10,4;-8,2;24,0;1527
2023-05-05 15:00:00;12,4;101193;96;0,0086;2,48;2,3;337;4,1;-0,89;2,15;142;0;nan;28,1;28,2;28,2;17,7;13,0;11,3;12,2;10,4;-8,2;24,3;1522
2023-05-05 16:00:00;13,1;101117;96;0,0089;0,0;1,8;4;3,2;0,13;1,78;217;0;nan;29,1;28,7;28,3;17,7;13,0;11,4;12,2;10,4;-8,2;24,6;1517
2023-05-05 17:00:00;13,3;101120;95;0,009;0,0;0,7;170;1,5;0,1;-0,6;169;0;nan;29,3;28,8;28,4;17,7;13,1;11,4;12,2;10,4;-8,2;25,1;1509
2023-05-05 18:00:00;13,2;101140;92;0,0086;0,0;0,7;239;1,1;-0,57;-0,35;38;0;nan;29,3;28,9;28,5;17,7;13,0;11,5;12,3;10,5;-8,3;25,5;1502
2023-05-05 19:00:00;12,2;101187;95;0,0083;0,0;0,5;220;0,9;-0,23;-0,27;2;0;nan;29,2;28,9;28,5;17,7;12,8;11,5;12,2;10,5;-8,3;25,5;1501
2023-05-05 20:00:00;11,4;101175;96;0,008;0,0;0,7;210;1,2;-0,33;-0,56;0;0;nan;29,2;28,9;28,6;17,7;12,5;11,5;12,2;10,5;-8,3;26,2;1491
2023-05-05 21:00:00;10,9;101133;96;0,0078;0,0;0,7;253;1,1;-0,7;-0,22;0;0;nan;29,2;28,9;28,7;17,7;12,2;11,5;12,1;10,5;-8,2;26,0;1494
2023-05-05 22:00:00;9,8;101123;99;0,0074;0,0;0,4;142;0,7;0,15;-0,19;0;0;nan;29,1;28,9;28,8;17,7;11,9;11,5;11,9;10,5;-8,2;26,0;1495
2023-05-05 23:00:00;9,5;101123;98;0,0072;0,02;0,6;210;0,9;-0,16;-0,27;0;0;nan;29,1;28,9;28,8;17,7;11,7;11,5;11,8;10,6;-8,2;26,0;1495
2023-05-06 00:00:00;9,0;101095;99;0,007;0,04;0,6;157;1,0;0,21;-0,5;0;0;nan;29,0;28,9;28,9;17,7;11,6;11,5;11,7;10,6;-8,3;26,3;1489
2023-05-06 01:00:00;8,5;101077;99;0,0068;0,02;0,4;130;0,8;0,1;-0,08;0;0;nan;28,9;28,9;28,9;17,7;11,4;11,5;11,6;10,6;-8,2;26,5;1487
2023-05-06 02:00:00;8,3;101063;99;0,0067;0,04;0,5;93;0,9;0,14;-0,01;0;0;nan;28,8;28,9;28,9;17,7;11,2;11,4;11,4;10,6;-8,2;26,4;1488
2023-05-06 03:00:00;8,7;101065;100;0,0069;0,02;1,1;114;1,7;0,96;-0,42;0;0;nan;28,8;28,9;29,0;17,7;11,1;11,4;11,3;10,6;-8,3;26,6;1485
2023-05-06 04:00:00;8,7;101072;100;0,0069;0,06;1,2;134;1,7;0,88;-0,84;10;0;nan;28,7;28,8;29,0;17,7;11,2;11,3;11,2;10,6;-8,3;26,6;1485
2023-05-06 05:00:00;9,0;101133;100;0,0071;0,0;1,4;157;2,1;0,55;-1,27;76;0;nan;28,7;28,8;29,0;17,7;11,2;11,3;11,2;10,7;-8,2;26,6;1485
2023-05-06 06:00:00;10,3;101127;100;0,0077;0,0;1,5;177;2,7;0,07;-1,5;183;0;nan;28,6;28,8;29,0;17,7;11,2;11,2;11,2;10,7;-8,3;26,6;1485
2023-05-06 07:00:00;12,5;101115;100;0,0089;0,0;1,4;198;2,8;-0,43;-1,34;353;0;nan;28,6;28,8;29,0;17,7;11,4;11,2;11,2;10,7;-8,2;26,4;1488
2023-05-06 08:00:00;14,9;101132;98;0,0102;0,0;1,4;178;2,9;0,04;-1,29;488;0;nan;28,5;28,8;29,0;17,7;11,8;11,2;11,3;10,7;-8,2;26,5;1487
2023-05-06 09:00:00;16,6;101113;86;0,0101;0,0;1,9;219;3,8;-1,15;-1,42;592;0;nan;28,4;28,7;29,0;17,7;12,4;11,2;11,4;10,7;-8,3;26,6;1485
2023-05-06 10:00:00;17,7;101077;78;0,0098;0,0;2,2;152;4,6;1,02;-1,9;590;0;nan;28,3;28,6;28,9;17,7;13,0;11,2;11,6;10,7;-8,3;26,3;1490
2023-05-06 11:00:00;18,6;101058;70;0,0093;0,0;1,6;169;3,7;0,28;-1,52;596;0;nan;28,1;28,5;28,8;17,7;13,5;11,3;11,9;10,7;-8,3;26,3;1490
2023-05-06 12:00:00;19,4;101035;64;0,0089;0,0;2,0;167;4,3;0,43;-1,9;520;0;nan;27,9;28,3;28,8;17,7;14,0;11,3;12,2;10,7;-8,3;26,2;1491
2023-05-06 13:00:00;19,7;101003;60;0,0085;0,0;1,5;141;3,4;0,9;-1,11;435;0;nan;27,7;28,2;28,7;17,7;14,2;11,4;12,5;10,7;-8,3;26,2;1491
2023-05-06 14:00:00;19,8;100973;59;0,0084;0,0;1,6;121;3,2;1,29;-0,77;343;0;nan;27,6;28,1;28,7;17,7;14,4;11,5;12,7;10,7;-8,3;26,3;1489
2023-05-06 15:00:00;20,0;100947;57;0,0083;0,0;1,1;151;2,7;0,45;-0,82;286;0;nan;27,6;28,1;28,7;17,7;14,4;11,6;12,9;10,7;-8,3;26,2;1491
2023-05-06 16:00:00;20,1;100947;57;0,0083;0,0;0,9;142;2,2;0,55;-0,71;157;0;nan;27,5;28,1;28,6;17,7;14,4;11,7;13,0;10,7;-8,3;25,9;1495
2023-05-06 17:00:00;17,3;100970;76;0,0093;0,0;2,4;215;5,7;-1,35;-1,93;35;0;nan;27,5;28,1;28,6;17,7;14,3;11,8;13,0;10,7;-8,3;25,6;1500
2023-05-06 18:00:00;16,5;101010;80;0,0093;0,0;1,3;171;3,0;0,19;-1,22;12;0;nan;27,5;28,0;28,6;17,7;14,0;11,9;13,1;10,8;-8,3;25,6;1500
2023-05-06 19:00:00;15,5;101060;88;0,0096;0,0;1,5;135;2,3;0,95;-0,94;0;0;nan;27,5;28,0;28,6;17,7;13,8;12,0;13,0;10,8;-8,3;25,5;1502
2023-05-06 20:00:00;14,6;101083;94;0,0097;0,12;1,0;98;1,7;1,02;-0,14;0;0;nan;27,4;28,0;28,6;17,7;13,7;12,0;13,0;10,8;-8,3;25,1;1508
2023-05-06 21:00:00;14,2;101070;95;0,0096;0,32;1,0;115;1,7;0,89;-0,41;0;0;nan;27,4;28,0;28,6;17,7;13,5;12,1;12,9;10,8;-8,3;25,3;1506
2023-05-06 22:00:00;13,9;101048;97;0,0095;0,05;0,8;99;1,4;0,8;-0,12;0;0;nan;27,4;28,0;28,6;17,7;13,4;12,1;12,9;10,9;-8,3;25,0;1510
2023-05-06 23:00:00;13,7;101040;97;0,0094;0,0;0,9;103;1,4;0,8;-0,18;0;0;nan;27,4;28,0;28,6;17,7;13,3;12,1;12,8;10,9;-8,3;24,9;1512
2023-05-07 00:00:00;13,7;101033;97;0,0094;0,0;0,4;134;0,9;0,17;-0,16;0;0;nan;27,4;28,0;28,6;17,7;13,2;12,1;12,7;10,9;-8,3;24,6;1517
2023-05-07 01:00:00;13,5;101000;98;0,0094;0,0;1,6;80;2,5;1,55;0,28;0;0;nan;27,4;28,0;28,6;17,7;13,1;12,1;12,7;10,9;-8,3;24,7;1516
2023-05-07 02:00:00;13,2;100992;98;0,0092;0,02;1,3;101;2,1;1,28;-0,24;0;0;nan;27,4;28,0;28,6;17,7;13,0;12,1;12,6;11,0;-8,4;24,5;1518
2023-05-07 03:00:00;13,0;100970;98;0,0091;0,0;1,6;91;2,4;1,55;-0,04;0;0;nan;27,3;28,0;28,6;17,7;12,9;12,1;12,6;11,0;-8,4;24,5;1519
2023-05-07 04:00:00;12,8;100980;98;0,009;0,0;1,8;90;2,8;1,82;0,01;14;0;nan;27,3;28,0;28,6;17,7;12,9;12,1;12,5;11,0;-8,4;24,3;1521
2023-05-07 05:00:00;13,0;101020;99;0,0092;0,0;2,3;94;3,3;2,32;-0,16;62;0;nan;27,3;27,9;28,6;17,7;12,8;12,1;12,5;11,0;-8,3;24,2;1524
2023-05-07 06:00:00;13,6;101067;100;0,0096;0,0;2,6;101;3,7;2,51;-0,51;200;0;nan;27,3;27,9;28,6;17,7;12,8;12,1;12,5;11,1;-8,4;24,2;1524
2023-05-07 07:00:00;14,6;101073;100;0,0102;0,0;2,8;95;4,3;2,78;-0,27;344;0;nan;27,3;27,9;28,6;17,7;13,0;12,1;12,5;11,1;-8,4;24,2;1523
2023-05-07 08:00:00;15,7;101083;96;0,0106;0,0;2,5;89;3,7;2,46;0,05;350;0;nan;27,2;27,9;28,6;17,7;13,3;12,1;12,5;11,1;-8,3;24,1;1524
2023-05-07 09:00:00;17,0;101090;92;0,011;0,0;2,9;102;4,5;2,87;-0,62;537;0;nan;27,2;27,9;28,5;17,7;13,6;12,1;12,7;11,1;-8,4;24,0;1526
2023-05-07 10:00:00;18,5;101078;83;0,0109;0,0;3,0;103;5,2;2,88;-0,67;554;0;nan;27,1;27,8;28,5;17,7;14,1;12,1;12,8;11,1;-8,4;24,1;1525
2023-05-07 11:00:00;19,5;101083;79;0,011;0,0;3,0;86;5,4;2,92;0,19;497;0;nan;27,0;27,7;28,4;17,7;14,5;12,1;13,0;11,2;-8,3;24,1;1524
2023-05-07 12:00:00;19,6;101087;75;0,0106;0,0;3,3;78;5,4;3,24;0,66;375;0;nan;26,9;27,6;28,4;17,7;14,8;12,2;13,2;11,2;-8,4;24,1;1525
2023-05-07 13:00:00;19,9;101108;70;0,0101;0,0;3,2;80;5,4;3,12;0,56;342;0;nan;26,8;27,5;28,3;17,7;14,9;12,3;13,4;11,2;-8,4;23,8;1531
2023-05-07 14:00:00;19,4;101143;72;0,01;0,0;3,2;87;4,7;3,19;0,17;100;0;nan;26,8;27,5;28,3;17,7;14,9;12,4;13,6;11,2;-8,4;23,6;1534
2023-05-07 15:00:00;19,0;101163;74;0,0101;0,0;2,9;92;4,6;2,91;-0,09;117;0;nan;26,8;27,5;28,3;17,7;14,8;12,5;13,6;11,2;-8,4;23,7;1532
2023-05-07 16:00:00;19,0;101170;76;0,0103;0,0;3,1;96;4,8;3,05;-0,31;138;0;nan;26,8;27,5;28,2;17,7;14,7;12,5;13,6;11,2;-8,4;23,9;1529
2023-05-07 17:00:00;18,9;101220;76;0,0102;0,0;1,8;122;3,4;1,47;-0,91;54;0;nan;26,8;27,5;28,2;17,7;14,6;12,6;13,7;11,2;-8,4;24,0;1527
2023-05-07 18:00:00;17,6;101280;84;0,0105;0,51;0,8;241;1,5;-0,39;-0,21;7;0;nan;26,8;27,5;28,2;17,7;14,5;12,6;13,7;11,3;-8,4;23,7;1532
2023-05-07 19:00:00;16,0;101323;93;0,0104;0,12;0,7;284;1,5;-0,59;0,15;0;0;nan;26,7;27,5;28,2;17,6;14,3;12,7;13,6;11,3;-8,4;23,8;1530
2023-05-07 20:00:00;15,6;101365;91;0,01;0,02;1,5;100;2,7;1,14;-0,21;0;0;nan;26,7;27,5;28,2;17,7;14,2;12,7;13,6;11,3;-8,4;23,7;1531
2023-05-07 21:00:00;15,1;101373;88;0,0094;0,0;2,2;97;3,7;2,22;-0,27;0;0;nan;26,7;27,5;28,2;17,6;14,1;12,7;13,5;11,3;-8,4;23,8;1531
2023-05-07 22:00:00;14,8;101380;87;0,009;0,0;2,5;105;4,1;2,37;-0,65;0;0;nan;26,7;27,5;28,2;17,6;13,9;12,7;13,5;11,4;-8,4;23,9;1528
2023-05-07 23:00:00;14,1;101410;86;0,0086;0,0;2,4;108;4,0;2,28;-0,72;0;0;nan;26,7;27,5;28,2;17,6;13,8;12,7;13,4;11,4;-8,4;23,7;1531
2023-05-08 00:00:00;13,3;101420;88;0,0083;0,0;1,8;103;3,0;1,74;-0,39;0;0;nan;26,7;27,5;28,2;17,6;13,7;12,7;13,3;11,4;-8,4;23,8;1530
2023-05-08 01:00:00;12,9;101407;89;0,0082;0,0;1,9;103;2,9;1,8;-0,43;0;0;nan;26,7;27,5;28,2;17,6;13,5;12,7;13,2;11,4;-8,4;23,9;1529
2023-05-08 02:00:00;12,6;101423;90;0,0081;0,0;1,6;97;2,5;1,59;-0,18;0;0;nan;26,7;27,5;28,2;17,6;13,4;12,7;13,2;11,5;-8,4;24,0;1527
2023-05-08 03:00:00;12,0;101422;91;0,0079;0,0;1,4;112;2,2;1,23;-0,5;0;0;nan;26,7;27,5;28,2;17,6;13,4;12,7;13,1;11,5;-8,4;24,1;1526
2023-05-08 04:00:00;11,7;101417;91;0,0077;0,0;1,4;119;2,2;1,25;-0,7;12;0;nan;26,7;27,4;28,2;17,6;13,2;12,7;13,0;11,5;-8,4;24,2;1524
2023-05-08 05:00:00;11,8;101447;92;0,0078;0,0;1,7;103;2,4;1,65;-0,38;54;0;nan;26,7;27,4;28,2;17,6;13,2;12,6;13,0;11,5;-8,4;24,4;1519
2023-05-08 06:00:00;12,9;101488;94;0,0085;0,0;0,8;120;1,5;0,52;-0,3;136;0;nan;26,7;27,4;28,2;17,6;13,2;12,6;12,9;11,6;-8,4;24,3;1522
2023-05-08 07:00:00;14,9;101513;94;0,0098;0,0;1,0;230;2,2;-0,72;-0,6;257;0;nan;26,7;27,4;28,2;17,6;13,2;12,6;12,9;11,6;-8,4;24,2;1524